Location: B�rgermoos
(47.6500°N, 9.0667°E)
Time: 06:30:33
(UTC+00:00)

USA 238 - Pass Details

Date: 18 September 2020
Orbit: 1006 x 1206 km, 63.4° (Epoch: 25 October)

Event Time Altitude Azimuth Distance (km) Brightness Sun altitude
Rises 19:32:27 0° 319° (NW) 3,941 7.9 -20.8°
Reaches altitude 10° 19:35:05 10° 318° (NW) 3,008 7.0 -21.2°
Maximum altitude 19:42:18 83° 232° (SW) 1,176 3.8 -22.3°
Enters shadow 19:45:44 36° 149° (SSE) 1,781 4.4 -22.8°
